• In Romania
  • List of Countries
  • For 7 days
  • Water Temperature
  • Satellite Maps
  • Weather Map
  • Weather Widgets
  • user-avatar
    Login

    Hourly Weather Escaldes-Engordany

    Today, 22 February, Wednesday

    Time Temperature Precipitation Wind Pressure Humidity
    00:00 +1°C° 0 mm 1 mps 640 mmHg 84%
    01:00 +1°C° 0 mm 1 mps 640 mmHg 83%
    02:00 +1°C° 0 mm 1 mps 639 mmHg 81%
    03:00 0°C° 0 mm 1 mps 639 mmHg 80%
    04:00 0°C° 0 mm 1 mps 639 mmHg 79%
    05:00 0°C° 0 mm 1 mps 639 mmHg 77%
    06:00 0°C° 0 mm 1 mps 639 mmHg 76%
    07:00 +3°C° 0 mm 1 mps 640 mmHg 69%
    08:00 +5°C° 0 mm 0 mps 641 mmHg 63%
    09:00 +7°C° 0 mm 0 mps 642 mmHg 56%
    10:00 +9°C° 0 mm 0 mps 643 mmHg 53%
    11:00 +11°C° 0 mm 1 mps 643 mmHg 50%
    12:00 +12°C° 0 mm 1 mps 643 mmHg 48%
    13:00 +12°C° 0 mm 1 mps 643 mmHg 50%
    14:00 +12°C° 0 mm 1 mps 642 mmHg 52%
    15:00 +12°C° 0 mm 1 mps 642 mmHg 55%
    16:00 +9°C° 0 mm 1 mps 640 mmHg 66%
    17:00 +6°C° 0 mm 1 mps 639 mmHg 77%
    18:00 +2°C° 0 mm 1 mps 638 mmHg 88%
    19:00 +2°C° 0 mm 1 mps 638 mmHg 87%
    20:00 +2°C° 0 mm 1 mps 638 mmHg 87%
    21:00 +2°C° 0 mm 1 mps 638 mmHg 87%
    22:00 +2°C° 0 mm 1 mps 637 mmHg 84%
    23:00 +2°C° 0 mm 1 mps 637 mmHg 82%

    Tomorrow, 23 February, Thursday

    Time Temperature Precipitation Wind Pressure Humidity
    00:00 +2°C° 0 mm 1 mps 637 mmHg 80%
    01:00 +1°C° 0 mm 1 mps 637 mmHg 75%
    02:00 +1°C° 0 mm 1 mps 637 mmHg 71%
    03:00 +1°C° 0 mm 1 mps 636 mmHg 66%
    04:00 +1°C° 0 mm 1 mps 636 mmHg 62%
    05:00 +2°C° 0 mm 1 mps 636 mmHg 57%
    06:00 +1°C° 0 mm 2 mps 636 mmHg 52%
    07:00 +4°C° 0 mm 1 mps 637 mmHg 50%
    08:00 +7°C° 0 mm 1 mps 638 mmHg 48%
    09:00 +9°C° 0 mm 1 mps 639 mmHg 46%
    10:00 +11°C° 0 mm 1 mps 639 mmHg 44%
    11:00 +12°C° 0 mm 2 mps 639 mmHg 42%
    12:00 +14°C° 0 mm 2 mps 640 mmHg 40%
    13:00 +14°C° 0 mm 2 mps 639 mmHg 42%
    14:00 +13°C° 0 mm 2 mps 639 mmHg 45%
    15:00 +13°C° 0 mm 2 mps 638 mmHg 48%
    16:00 +10°C° 0 mm 1 mps 637 mmHg 60%
    17:00 +7°C° 0 mm 1 mps 636 mmHg 73%
    18:00 +4°C° 0 mm 1 mps 635 mmHg 85%
    19:00 +2°C° 0 mm 0 mps 635 mmHg 86%
    20:00 +2°C° 0 mm 0 mps 635 mmHg 87%
    21:00 +1°C° 0 mm 0 mps 635 mmHg 88%
    22:00 +2°C° 0 mm 1 mps 635 mmHg 89%
    23:00 +2°C° 0 mm 1 mps 635 mmHg 89%

    Day after tomorrow, 24 February, Friday

    Time Temperature Precipitation Wind Pressure Humidity
    00:00 +2°C° 0 mm 1 mps 635 mmHg 89%
    01:00 +3°C° 0 mm 1 mps 635 mmHg 90%
    02:00 +3°C° 0 mm 1 mps 635 mmHg 90%
    03:00 +2°C° 0 mm 2 mps 635 mmHg 91%
    04:00 +1°C° 0 mm 2 mps 635 mmHg 92%
    05:00 +1°C° 0 mm 2 mps 635 mmHg 92%
    06:00 +1°C° 0 mm 2 mps 635 mmHg 93%
    07:00 +2°C° 0 mm 2 mps 636 mmHg 88%
    08:00 +4°C° 0 mm 2 mps 637 mmHg 83%
    09:00 +4°C° 0 mm 3 mps 638 mmHg 78%
    10:00 +4°C° 0 mm 3 mps 638 mmHg 74%
    11:00 +5°C° 0 mm 3 mps 638 mmHg 70%
    12:00 +5°C° 0 mm 3 mps 638 mmHg 67%
    13:00 +5°C° 0 mm 3 mps 638 mmHg 66%
    14:00 +5°C° 0 mm 4 mps 638 mmHg 65%
    15:00 +5°C° 0 mm 4 mps 638 mmHg 64%
    16:00 +3°C° 0 mm 3 mps 637 mmHg 70%
    17:00 +1°C° 0 mm 3 mps 637 mmHg 76%
    18:00 -1°C° 0 mm 3 mps 637 mmHg 82%
    19:00 -1°C° 0 mm 3 mps 637 mmHg 81%
    20:00 -2°C° 0 mm 3 mps 638 mmHg 81%
    21:00 -2°C° 0 mm 3 mps 638 mmHg 80%
    22:00 -2°C° 0 mm 3 mps 638 mmHg 79%
    23:00 -2°C° 0 mm 3 mps 638 mmHg 77%

    25 February, Saturday

    Time Temperature Precipitation Wind Pressure Humidity
    00:00 -3°C° 0 mm 2 mps 638 mmHg 76%
    01:00 -3°C° 0 mm 2 mps 638 mmHg 75%
    02:00 -3°C° 0 mm 2 mps 638 mmHg 74%
    03:00 -3°C° 0 mm 2 mps 638 mmHg 73%
    04:00 -3°C° 0 mm 2 mps 638 mmHg 73%
    05:00 -3°C° 0 mm 2 mps 638 mmHg 72%
    06:00 -3°C° 0 mm 2 mps 638 mmHg 72%
    07:00 +1°C° 0 mm 1 mps 639 mmHg 63%
    08:00 +4°C° 0 mm 1 mps 640 mmHg 54%
    09:00 +6°C° 0 mm 1 mps 641 mmHg 45%
    10:00 +8°C° 0 mm 1 mps 641 mmHg 43%
    11:00 +10°C° 0 mm 1 mps 642 mmHg 40%
    12:00 +11°C° 0 mm 1 mps 642 mmHg 37%
    13:00 +11°C° 0 mm 1 mps 642 mmHg 40%
    14:00 +11°C° 0 mm 1 mps 642 mmHg 42%
    15:00 +11°C° 0 mm 1 mps 641 mmHg 45%
    16:00 +8°C° 0 mm 1 mps 640 mmHg 58%
    17:00 +5°C° 0 mm 1 mps 639 mmHg 72%
    18:00 +1°C° 0 mm 0 mps 638 mmHg 85%
    19:00 +1°C° 0 mm 1 mps 639 mmHg 86%
    20:00 +1°C° 0 mm 1 mps 639 mmHg 86%
    21:00 +1°C° 0 mm 1 mps 639 mmHg 86%
    22:00 +1°C° 0 mm 1 mps 639 mmHg 86%
    23:00 +1°C° 0 mm 1 mps 640 mmHg 85%

    26 February, Sunday

    Time Temperature Precipitation Wind Pressure Humidity
    00:00 +1°C° 0 mm 1 mps 640 mmHg 84%
    01:00 +1°C° 0 mm 1 mps 639 mmHg 83%
    02:00 0°C° 0 mm 1 mps 639 mmHg 81%
    03:00 0°C° 0 mm 1 mps 639 mmHg 79%
    04:00 0°C° 0 mm 1 mps 639 mmHg 79%
    05:00 -2°C° 0 mm 0 mps 639 mmHg 78%
    06:00 -2°C° 0 mm 0 mps 639 mmHg 78%
    07:00 +1°C° 0 mm 0 mps 640 mmHg 69%
    08:00 +4°C° 0 mm 0 mps 642 mmHg 60%
    09:00 +8°C° 0 mm 1 mps 643 mmHg 51%
    10:00 +9°C° 0 mm 1 mps 643 mmHg 49%
    11:00 +11°C° 0 mm 1 mps 643 mmHg 47%
    12:00 +12°C° 0 mm 2 mps 643 mmHg 45%
    13:00 +12°C° 0 mm 2 mps 643 mmHg 47%
    14:00 +12°C° 0 mm 2 mps 642 mmHg 49%
    15:00 +12°C° 0 mm 2 mps 642 mmHg 50%
    16:00 +9°C° 0 mm 1 mps 641 mmHg 63%
    17:00 +6°C° 0 mm 1 mps 639 mmHg 75%
    18:00 +3°C° 0 mm 1 mps 638 mmHg 87%
    19:00 +2°C° 0 mm 1 mps 638 mmHg 87%
    20:00 +2°C° 0 mm 1 mps 638 mmHg 88%
    21:00 +2°C° 0 mm 1 mps 638 mmHg 88%
    22:00 +2°C° 0 mm 1 mps 638 mmHg 87%
    23:00 +2°C° 0 mm 1 mps 637 mmHg 87%

    27 February, Monday

    Time Temperature Precipitation Wind Pressure Humidity
    00:00 +2°C° 0 mm 1 mps 637 mmHg 86%
    01:00 +1°C° 0 mm 1 mps 637 mmHg 85%
    02:00 +1°C° 0 mm 1 mps 637 mmHg 84%
    03:00 +1°C° 0 mm 1 mps 636 mmHg 83%
    04:00 +1°C° 0 mm 1 mps 636 mmHg 80%
    05:00 +1°C° 0 mm 1 mps 636 mmHg 76%
    06:00 -1°C° 0 mm 2 mps 636 mmHg 72%
    07:00 +3°C° 0 mm 2 mps 637 mmHg 67%
    08:00 +5°C° 0 mm 2 mps 637 mmHg 63%
    09:00 +8°C° 0 mm 2 mps 638 mmHg 58%
    10:00 +9°C° 0 mm 3 mps 638 mmHg 55%
    11:00 +10°C° 0 mm 3 mps 639 mmHg 52%
    12:00 +12°C° 0 mm 3 mps 639 mmHg 50%
    13:00 +11°C° 0 mm 3 mps 638 mmHg 51%
    14:00 +11°C° 0 mm 3 mps 638 mmHg 53%
    15:00 +11°C° 0 mm 3 mps 637 mmHg 54%
    16:00 +8°C° 0 mm 2 mps 636 mmHg 66%
    17:00 +6°C° 0 mm 2 mps 635 mmHg 79%
    18:00 +4°C° 0 mm 1 mps 634 mmHg 91%
    19:00 +4°C° 0 mm 1 mps 634 mmHg 90%
    20:00 +3°C° 0 mm 1 mps 634 mmHg 90%
    21:00 +3°C° 0 mm 1 mps 634 mmHg 90%
    22:00 +3°C° 0 mm 1 mps 634 mmHg 90%
    23:00 +3°C° 0 mm 1 mps 634 mmHg 90%
    Show more